FW9451 Weather Reports


Display with metric or nautical units.
time (UTC)temp
F
wind
direction
speed
MPH
gust
MPH
rain 1hr
in
rain 24hr
in
rain mn
in
humidity
%
barometer
mb
20260503013050 42 47 4.0 9.0 0.04 0.31 0.31 93 1012.1
20260503011558 42 38 4.0 10.0 0.03 0.30 0.30 94 1012.1
20260503010054 43 44 4.0 9.0 0.03 0.30 0.30 94 1012.2
20260503004559 43 50 3.0 6.0 0.02 0.28 0.28 93 1012.1
20260503003106 43 28 1.0 10.0 0.01 0.27 0.27 93 1012.1
20260503001554 43 24 3.0 10.0 0.02 0.27 0.27 93 1011.9
20260503000051 43 30 5.0 10.0 0.03 0.27 0.27 93 1011.6
20260502234557 43 57 4.0 8.0 0.02 0.26 0.26 93 1011.7
20260502233053 43 41 3.0 6.0 0.03 0.26 0.26 93 1011.8
20260502231555 43 64 2.0 7.0 0.03 0.25 0.25 93 1011.7
20260502230100 43 68 3.0 8.0 0.03 0.24 0.24 93 1011.7
20260502224609 44 32 4.0 8.0 0.03 0.24 0.24 93 1011.5
20260502223102 44 12 4.0 8.0 0.06 0.23 0.23 93 1011.5
20260502221556 44 52 2.0 4.0 0.07 0.22 0.22 92 1011.6
20260502220049 44 105 1.0 3.0 0.08 0.21 0.21 92 1011.8
20260502214558 44 58 1.0 6.0 0.13 0.21 0.21 92 1011.7
20260502213109 44 0 3.0 6.0 0.10 0.17 0.17 91 1011.8
20260502211637 44 338 2.0 8.0 0.08 0.15 0.15 91 1011.9
20260502210105 44 18 3.0 8.0 0.06 0.12 0.12 91 1011.8
20260502204544 45 29 4.0 6.0 0.03 0.08 0.08 90 1011.7
20260502203059 46 53 3.0 5.0 0.02 0.07 0.07 90 1011.7
20260502201559 46 0 0.0 3.0 0.02 0.07 0.07 90 1011.6
20260502200049 46 31 2.0 4.0 0.01 0.06 0.06 89 1011.8
20260502194602 46 0 2.0 4.0 0.00 0.05 0.05 89 1011.8
20260502193052 46 36 1.0 4.0 0.00 0.05 0.05 89 1011.8
20260502191551 46 88 2.0 4.0 0.00 0.05 0.05 89 1012.0
20260502190057 46 0 0.0 3.0 0.00 0.05 0.05 89 1012.2
20260502184556 46 175 0.0 3.0 0.00 0.05 0.05 89 1012.4
20260502183105 45 0 0.0 4.0 0.00 0.05 0.05 90 1012.5
20260502181551 46 0 0.0 6.0 0.00 0.05 0.05 90 1012.6
20260502163053 43 107 2.0 7.0 0.00 0.05 0.05 90 1012.7
20260502161549 43 65 1.0 8.0 0.00 0.05 0.05 89 1012.8
20260502151600 44 121 2.0 7.0 0.01 0.05 0.05 89 1012.8
20260502123051 41 65 1.0 6.0 0.02 0.02 0.02 86 1013.8
20260502121551 41 98 1.0 5.0 0.02 0.02 0.02 85 1014.1
20260502114605 42 25 1.0 9.0 0.00 0.00 0.00 79 1014.2
20260502113050 43 75 0.0 4.0 0.00 0.00 0.00 78 1014.1
20260502111556 42 0 0.0 3.0 0.00 0.00 0.00 76 1014.0
20260502110050 42 0 0.0 3.0 0.00 0.00 0.00 75 1013.9
20260502104551 42 76 0.0 5.0 0.00 0.00 0.00 74 1013.9
20260502103050 42 144 0.0 3.0 0.00 0.00 0.00 71 1013.8
20260502101618 42 116 1.0 4.0 0.00 0.00 0.00 70 1013.1
20260502090113 42 107 1.0 4.0 0.00 0.00 0.00 61 1012.8
20260502070058 44 0 0.0 0.0 0.00 0.00 0.00 51 1013.1
20260502064551 44 0 0.0 0.0 0.00 0.00 0.00 52 1012.8
20260502063057 44 0 0.0 0.0 0.00 0.00 0.00 52 1012.7
20260502061551 44 0 0.0 2.0 0.00 0.00 0.00 51 1012.6
20260502060049 44 66 0.0 3.0 0.00 0.00 0.00 51 1012.7
20260502054556 44 0 0.0 2.0 0.00 0.00 0.00 50 1012.7
20260502053056 44 0 1.0 4.0 0.00 0.00 0.00 49 1012.5
20260502051620 45 66 1.0 3.0 0.00 0.00 0.00 48 1012.6
20260502050056 45 55 1.0 4.0 0.00 0.00 0.00 48 1012.5
20260502044553 46 48 2.0 5.0 0.00 0.00 0.00 47 1012.4
20260502043057 46 59 2.0 5.0 0.00 0.00 0.00 46 1012.5
20260502041548 46 59 3.0 6.0 0.00 0.00 0.00 45 1012.4
20260502040057 47 58 3.0 7.0 0.00 0.00 0.00 44 1012.4
20260502034551 47 51 3.0 7.0 0.00 0.00 0.00 43 1012.3
20260502033049 47 30 3.0 7.0 0.00 0.00 0.00 43 1012.4
20260502031548 48 51 3.0 6.0 0.00 0.00 0.00 42 1012.2
20260502030050 48 53 2.0 5.0 0.00 0.00 0.00 42 1012.3
20260502024546 48 44 3.0 6.0 0.00 0.00 0.00 41 1012.3
20260502023120 48 50 3.0 5.0 0.00 0.00 0.00 40 1012.3
20260502021550 49 51 1.0 5.0 0.00 0.00 0.00 39 1012.3
20260502020105 49 5 1.0 6.0 0.00 0.00 0.00 39 1012.3
20260502014551 49 40 1.0 4.0 0.00 0.00 0.00 39 1012.3